JTC650 KBED-KOPF

Flight info

Callsign JTC650
Flight time 2h 29m
Altitude 43000
Route DCT SSOXS Q167 RIFLE DCT HEADI Q97 KALDA Q161 CHIEZ Y291 MAJIK CUUDA3
Aircraft GLF6/M-SDE3FGHIRWY/LB1

Departure

Time 2026-04-25 13:59
Airport Laurence G Hanscom Field (KBED)

Arrival

Time 2026-04-25 16:29
Airport Miami-Opa Locka Executive Airport (KOPF)
Time Latitude Longitude Altitude Speed Heading
2026-04-25 13:53 42.46423 -71.29821 128 ft 0 kts 336°
2026-04-25 13:56 42.46428 -71.29823 128 ft 4 kts 344°
2026-04-25 13:57 42.46452 -71.29807 126 ft 5 kts 39°
2026-04-25 13:57 42.46463 -71.29797 127 ft 6 kts 26°
2026-04-25 13:57 42.46601 -71.29844 128 ft 22 kts 338°
2026-04-25 13:57 42.46742 -71.29919 131 ft 22 kts 339°
2026-04-25 13:58 42.46887 -71.29997 135 ft 23 kts 338°
2026-04-25 13:58 42.47037 -71.30037 136 ft 22 kts
2026-04-25 13:58 42.47168 -71.29994 138 ft 11 kts 55°
2026-04-25 13:58 42.47170 -71.29880 139 ft 19 kts 100°
2026-04-25 13:59 42.47112 -71.29269 133 ft 115 kts 96°
2026-04-25 13:59 42.47043 -71.27908 653 ft 162 kts 86°
2026-04-25 13:59 42.47490 -71.26434 1720 ft 183 kts 48°
2026-04-25 13:59 42.48602 -71.25744 2345 ft 178 kts
2026-04-25 14:00 42.49734 -71.26352 2874 ft 185 kts 315°
2026-04-25 14:00 42.50239 -71.28000 3293 ft 202 kts 279°
2026-04-25 14:00 42.50063 -71.30014 3665 ft 232 kts 256°
2026-04-25 14:00 42.49179 -71.31980 4219 ft 256 kts 225°
2026-04-25 14:01 42.47607 -71.33105 5195 ft 264 kts 195°
2026-04-25 14:01 42.45733 -71.33161 5933 ft 274 kts 171°
2026-04-25 14:01 42.43865 -71.32622 6860 ft 277 kts 167°
2026-04-25 14:01 42.41964 -71.32023 7463 ft 283 kts 167°
2026-04-25 14:02 42.40040 -71.31385 8146 ft 287 kts 166°
2026-04-25 14:02 42.38090 -71.30726 8946 ft 291 kts 166°
2026-04-25 14:02 42.36113 -71.30047 9724 ft 296 kts 166°
2026-04-25 14:02 42.35470 -71.29780 9948 ft 299 kts 160°
2026-04-25 14:03 42.32465 -71.26941 10184 ft 342 kts 139°
2026-04-25 14:03 42.30521 -71.24891 10420 ft 361 kts 143°
2026-04-25 14:03 42.28520 -71.22840 11197 ft 363 kts 141°
2026-04-25 14:03 42.26545 -71.20651 11797 ft 370 kts 139°
2026-04-25 14:04 42.24538 -71.18414 12406 ft 378 kts 140°
2026-04-25 14:04 42.22324 -71.16476 12984 ft 384 kts 156°
2026-04-25 14:04 42.19747 -71.15574 13649 ft 385 kts 177°
2026-04-25 14:04 42.17089 -71.15860 14235 ft 384 kts 197°
2026-04-25 14:05 42.14669 -71.17292 14819 ft 379 kts 217°
2026-04-25 14:05 42.12576 -71.19429 15412 ft 378 kts 225°
2026-04-25 14:05 42.10570 -71.21747 16011 ft 382 kts 226°
2026-04-25 14:05 42.08479 -71.23999 16607 ft 388 kts 222°
2026-04-25 14:06 42.06241 -71.26089 17194 ft 394 kts 220°
2026-04-25 14:06 42.03992 -71.28215 17776 ft 396 kts 223°
2026-04-25 14:06 42.01790 -71.30454 18365 ft 399 kts 225°
2026-04-25 14:06 41.99555 -71.32711 18877 ft 403 kts 224°
2026-04-25 14:07 41.97273 -71.34927 19410 ft 406 kts 224°
2026-04-25 14:07 41.94979 -71.37160 19927 ft 409 kts 225°
2026-04-25 14:07 41.92688 -71.39431 20447 ft 411 kts 225°
2026-04-25 14:07 41.90376 -71.41716 20973 ft 413 kts 225°
2026-04-25 14:08 41.88048 -71.43994 21523 ft 414 kts 226°
2026-04-25 14:08 41.85713 -71.46278 22057 ft 416 kts 226°
2026-04-25 14:08 41.84166 -71.47800 22378 ft 418 kts 226°
2026-04-25 14:08 41.81016 -71.50891 23058 ft 421 kts 227°
2026-04-25 14:09 41.79443 -71.52427 23384 ft 423 kts 227°
2026-04-25 14:09 41.77062 -71.54753 23849 ft 425 kts 227°
2026-04-25 14:09 41.74668 -71.57098 24148 ft 429 kts 227°
2026-04-25 14:09 41.73059 -71.58676 24150 ft 438 kts 226°
2026-04-25 14:10 41.69699 -71.61958 24162 ft 455 kts 226°
2026-04-25 14:10 41.67104 -71.64479 24164 ft 467 kts 225°
2026-04-25 14:10 41.64468 -71.67029 24775 ft 458 kts 225°
2026-04-25 14:10 41.61959 -71.69430 26199 ft 434 kts 226°
2026-04-25 14:11 41.59510 -71.71831 26448 ft 440 kts 227°
2026-04-25 14:11 41.57040 -71.74276 26844 ft 442 kts 226°
2026-04-25 14:11 41.54537 -71.76688 27206 ft 446 kts 226°
2026-04-25 14:11 41.52008 -71.79114 27514 ft 449 kts 226°
2026-04-25 14:12 41.49471 -71.81575 27878 ft 452 kts 226°
2026-04-25 14:12 41.46923 -71.84049 28270 ft 455 kts 226°
2026-04-25 14:12 41.44351 -71.86527 28643 ft 458 kts 226°
2026-04-25 14:12 41.41764 -71.89018 29008 ft 460 kts 226°
2026-04-25 14:13 41.39163 -71.91527 29331 ft 463 kts 226°
2026-04-25 14:13 41.36548 -71.94046 29728 ft 465 kts 225°
2026-04-25 14:13 41.33913 -71.96580 30070 ft 468 kts 225°
2026-04-25 14:13 41.31263 -71.99123 30382 ft 471 kts 225°
2026-04-25 14:14 41.28596 -72.01683 30674 ft 474 kts 225°
2026-04-25 14:14 41.25904 -72.04236 30952 ft 479 kts 223°
2026-04-25 14:14 41.22907 -72.06349 31196 ft 495 kts 213°
2026-04-25 14:14 41.19682 -72.08057 31464 ft 502 kts 209°
2026-04-25 14:15 41.16368 -72.09618 31692 ft 508 kts 207°
2026-04-25 14:15 41.14149 -72.10619 31872 ft 510 kts 207°
2026-04-25 14:15 41.09630 -72.12611 32361 ft 513 kts 207°
2026-04-25 14:15 41.06229 -72.14093 32795 ft 517 kts 206°
2026-04-25 14:16 41.02803 -72.15582 33192 ft 520 kts 206°
2026-04-25 14:16 40.99351 -72.17084 33581 ft 523 kts 206°
2026-04-25 14:16 40.95890 -72.18592 34128 ft 525 kts 206°
2026-04-25 14:16 40.92410 -72.20113 34541 ft 528 kts 206°
2026-04-25 14:17 40.88915 -72.21651 35002 ft 530 kts 206°
2026-04-25 14:17 40.85413 -72.23208 35448 ft 532 kts 206°
2026-04-25 14:17 40.81919 -72.24840 35851 ft 530 kts 210°
2026-04-25 14:17 40.78746 -72.27171 36255 ft 514 kts 224°
2026-04-25 14:18 40.76169 -72.30314 36688 ft 500 kts 236°
2026-04-25 14:18 40.74340 -72.34072 37430 ft 474 kts 251°
2026-04-25 14:18 40.73201 -72.38094 37933 ft 466 kts 259°
2026-04-25 14:18 40.72382 -72.42221 38268 ft 465 kts 263°
2026-04-25 14:19 40.71676 -72.46375 38709 ft 464 kts 263°
2026-04-25 14:19 40.70909 -72.50516 39044 ft 468 kts 260°
2026-04-25 14:19 40.69802 -72.54589 39334 ft 475 kts 252°
2026-04-25 14:19 40.68325 -72.58508 39655 ft 481 kts 246°
2026-04-25 14:20 40.66487 -72.62227 39944 ft 488 kts 239°
2026-04-25 14:20 40.65077 -72.64553 40116 ft 492 kts 236°
2026-04-25 14:20 40.62119 -72.69159 40559 ft 491 kts 236°
2026-04-25 14:20 40.59958 -72.72635 40875 ft 491 kts 237°
2026-04-25 14:21 40.57802 -72.76125 41184 ft 491 kts 236°
2026-04-25 14:21 40.55623 -72.79583 41494 ft 492 kts 236°
2026-04-25 14:21 40.53430 -72.83040 41789 ft 492 kts 236°
2026-04-25 14:21 40.51253 -72.86506 42083 ft 491 kts 236°
2026-04-25 14:22 40.49081 -72.89973 42346 ft 492 kts 236°
2026-04-25 14:22 40.46901 -72.93423 42688 ft 490 kts 236°
2026-04-25 14:22 40.44722 -72.96866 42988 ft 489 kts 235°
2026-04-25 14:22 40.42539 -73.00326 43106 ft 496 kts 235°
2026-04-25 14:23 40.40336 -73.03814 43100 ft 496 kts 235°
2026-04-25 14:23 40.35934 -73.10746 43098 ft 494 kts 235°
2026-04-25 14:24 40.31537 -73.17674 43081 ft 494 kts 235°
2026-04-25 14:24 40.27137 -73.24582 43106 ft 494 kts 235°
2026-04-25 14:25 40.22738 -73.31477 43099 ft 493 kts 235°
2026-04-25 14:25 40.18334 -73.38361 43099 ft 493 kts 235°
2026-04-25 14:26 40.13934 -73.45226 43080 ft 492 kts 235°
2026-04-25 14:26 40.09535 -73.52074 43097 ft 492 kts 235°
2026-04-25 14:27 40.05137 -73.58906 43091 ft 491 kts 235°
2026-04-25 14:27 40.00735 -73.65727 43083 ft 492 kts 234°
2026-04-25 14:28 39.95713 -73.71784 43077 ft 500 kts 220°
2026-04-25 14:28 39.89501 -73.76149 43086 ft 509 kts 207°
2026-04-25 14:29 39.82938 -73.79642 43084 ft 510 kts 207°
2026-04-25 14:29 39.76373 -73.83137 43060 ft 511 kts 207°
2026-04-25 14:30 39.69827 -73.86612 43069 ft 511 kts 207°
2026-04-25 14:30 39.59914 -73.91863 43064 ft 511 kts 207°
2026-04-25 14:31 39.53333 -73.95342 43067 ft 511 kts 207°
2026-04-25 14:31 39.46789 -73.98792 43066 ft 511 kts 207°
2026-04-25 14:32 39.40483 -74.02862 43062 ft 501 kts 219°
2026-04-25 14:32 39.35096 -74.08447 43058 ft 495 kts 225°
2026-04-25 14:33 39.29827 -74.14173 43061 ft 496 kts 225°
2026-04-25 14:33 39.24558 -74.19926 43055 ft 496 kts 225°
2026-04-25 14:34 39.19270 -74.25665 43048 ft 497 kts 225°
2026-04-25 14:34 39.13986 -74.31398 43031 ft 497 kts 225°
2026-04-25 14:35 39.08697 -74.37122 43025 ft 497 kts 225°
2026-04-25 14:35 39.03397 -74.42846 43019 ft 497 kts 224°
2026-04-25 14:36 38.98083 -74.48551 43003 ft 497 kts 225°
2026-04-25 14:36 38.92837 -74.54334 43028 ft 496 kts 226°
2026-04-25 14:37 38.87746 -74.60310 43024 ft 496 kts 227°
2026-04-25 14:37 38.82644 -74.66286 43021 ft 497 kts 226°
2026-04-25 14:38 38.77521 -74.72242 43017 ft 496 kts 227°
2026-04-25 14:38 38.72284 -74.78024 43009 ft 498 kts 223°
2026-04-25 14:39 38.66902 -74.83624 42997 ft 499 kts 224°
2026-04-25 14:39 38.61523 -74.89235 42999 ft 499 kts 223°
2026-04-25 14:40 38.56127 -74.94828 42989 ft 499 kts 223°
2026-04-25 14:40 38.50807 -75.00505 42989 ft 497 kts 225°
2026-04-25 14:41 38.45535 -75.06228 42986 ft 500 kts 220°
2026-04-25 14:41 38.39943 -75.11504 42999 ft 500 kts 221°
2026-04-25 14:42 38.36233 -75.15072 43000 ft 500 kts 221°
2026-04-25 14:42 38.28780 -75.22107 43002 ft 501 kts 221°
2026-04-25 14:43 38.23194 -75.27406 43001 ft 501 kts 220°
2026-04-25 14:43 38.17600 -75.32682 42983 ft 500 kts 220°
2026-04-25 14:44 38.12010 -75.37952 42976 ft 501 kts 220°
2026-04-25 14:44 38.06416 -75.43216 42957 ft 501 kts 220°
2026-04-25 14:45 38.00691 -75.48275 42959 ft 502 kts 218°
2026-04-25 14:45 37.94957 -75.53299 42972 ft 501 kts 219°
2026-04-25 14:46 37.89194 -75.58303 42971 ft 503 kts 218°
2026-04-25 14:46 37.83129 -75.62742 42965 ft 509 kts 207°
2026-04-25 14:47 37.78648 -75.64602 42948 ft 513 kts 199°
2026-04-25 14:47 37.69449 -75.67851 42954 ft 514 kts 199°
2026-04-25 14:48 37.62550 -75.70261 42953 ft 515 kts 199°
2026-04-25 14:48 37.55654 -75.72684 42954 ft 514 kts 199°
2026-04-25 14:49 37.48762 -75.75089 42949 ft 514 kts 199°
2026-04-25 14:49 37.41865 -75.77501 42942 ft 514 kts 199°
2026-04-25 14:50 37.34970 -75.79895 42918 ft 514 kts 199°
2026-04-25 14:50 37.29243 -75.81896 42906 ft 514 kts 199°
2026-04-25 14:51 37.22344 -75.84290 42911 ft 515 kts 199°
2026-04-25 14:51 37.15439 -75.86682 42908 ft 515 kts 199°
2026-04-25 14:52 37.08615 -75.89336 42887 ft 509 kts 207°
2026-04-25 14:52 37.03436 -75.92750 42909 ft 506 kts 213°
2026-04-25 14:53 36.96229 -75.97731 42909 ft 507 kts 213°
2026-04-25 14:53 36.90062 -76.02028 42905 ft 507 kts 213°
2026-04-25 14:54 36.83888 -76.06289 42896 ft 507 kts 213°
2026-04-25 14:54 36.77716 -76.10558 42897 ft 508 kts 213°
2026-04-25 14:55 36.71532 -76.14818 42896 ft 508 kts 213°
2026-04-25 14:55 36.65350 -76.19072 42899 ft 507 kts 212°
2026-04-25 14:56 36.59172 -76.23315 42905 ft 508 kts 212°
2026-04-25 14:56 36.52979 -76.27564 42898 ft 508 kts 212°
2026-04-25 14:57 36.46788 -76.31801 42895 ft 508 kts 212°
2026-04-25 14:57 36.40638 -76.35994 42890 ft 507 kts 212°
2026-04-25 14:58 36.34407 -76.40254 42890 ft 508 kts 212°
2026-04-25 14:58 36.28202 -76.44463 42886 ft 509 kts 212°
2026-04-25 14:59 36.22005 -76.48688 42890 ft 508 kts 212°
2026-04-25 14:59 36.15794 -76.52887 42903 ft 508 kts 212°
2026-04-25 15:00 36.09635 -76.57064 42903 ft 508 kts 212°
2026-04-25 15:00 36.03424 -76.61254 42904 ft 509 kts 212°
2026-04-25 15:01 35.97220 -76.65442 42908 ft 508 kts 212°
2026-04-25 15:01 35.91007 -76.69621 42905 ft 509 kts 212°
2026-04-25 15:02 35.84656 -76.73525 42891 ft 510 kts 210°
2026-04-25 15:02 35.78297 -76.77418 42893 ft 510 kts 210°
2026-04-25 15:03 35.71931 -76.81294 42892 ft 510 kts 209°
2026-04-25 15:03 35.65570 -76.85164 42892 ft 510 kts 209°
2026-04-25 15:04 35.59202 -76.89035 42901 ft 510 kts 209°
2026-04-25 15:04 35.52848 -76.92914 42884 ft 510 kts 210°
2026-04-25 15:05 35.46504 -76.96822 42905 ft 510 kts 209°
2026-04-25 15:06 35.36962 -77.02652 42906 ft 511 kts 210°
2026-04-25 15:06 35.30597 -77.06533 42909 ft 511 kts 209°
2026-04-25 15:07 35.24236 -77.10410 42911 ft 511 kts 209°
2026-04-25 15:07 35.17875 -77.14280 42911 ft 511 kts 209°
2026-04-25 15:08 35.11508 -77.18142 42932 ft 511 kts 209°
2026-04-25 15:08 35.05145 -77.22001 42927 ft 511 kts 209°
2026-04-25 15:09 34.98772 -77.25855 42938 ft 511 kts 209°
2026-04-25 15:09 34.89197 -77.31639 42933 ft 512 kts 209°
2026-04-25 15:10 34.82812 -77.35481 42932 ft 512 kts 209°
2026-04-25 15:11 34.73225 -77.41242 42926 ft 513 kts 208°
2026-04-25 15:11 34.66832 -77.45081 42932 ft 513 kts 209°
2026-04-25 15:12 34.57232 -77.50823 42932 ft 512 kts 208°
2026-04-25 15:12 34.52912 -77.53280 42914 ft 515 kts 203°
2026-04-25 15:13 34.47137 -77.55089 42937 ft 518 kts 192°
2026-04-25 15:13 34.40039 -77.56660 42935 ft 519 kts 193°
2026-04-25 15:14 34.32920 -77.58229 42936 ft 520 kts 192°
2026-04-25 15:14 34.25810 -77.59791 42926 ft 519 kts 192°
2026-04-25 15:15 34.18704 -77.61363 42925 ft 520 kts 192°
2026-04-25 15:15 34.11584 -77.62922 42927 ft 520 kts 192°
2026-04-25 15:16 34.04460 -77.64484 42932 ft 520 kts 192°
2026-04-25 15:16 33.93784 -77.66810 42934 ft 519 kts 192°
2026-04-25 15:17 33.83118 -77.69149 42941 ft 519 kts 192°
2026-04-25 15:18 33.76017 -77.70694 42942 ft 518 kts 192°
2026-04-25 15:18 33.65460 -77.73322 42950 ft 515 kts 198°
2026-04-25 15:19 33.60880 -77.74843 42953 ft 516 kts 197°
2026-04-25 15:19 33.51645 -77.77782 42950 ft 515 kts 196°
2026-04-25 15:20 33.44573 -77.79417 42894 ft 516 kts 184°
2026-04-25 15:20 33.37464 -77.80240 42958 ft 515 kts 189°
2026-04-25 15:21 33.30347 -77.81151 42886 ft 514 kts 195°
2026-04-25 15:21 33.26932 -77.82327 42895 ft 510 kts 206°
2026-04-25 15:21 33.23669 -77.83996 42963 ft 510 kts 204°
2026-04-25 15:22 33.17023 -77.87072 42960 ft 514 kts 200°
2026-04-25 15:22 33.10121 -77.89388 42960 ft 516 kts 196°
2026-04-25 15:23 33.03277 -77.91872 42961 ft 514 kts 200°
2026-04-25 15:23 32.96378 -77.94049 42959 ft 513 kts 199°
2026-04-25 15:24 32.89661 -77.96969 42955 ft 516 kts 204°
2026-04-25 15:24 32.85178 -77.98841 42958 ft 516 kts 199°
2026-04-25 15:25 32.76093 -78.02307 42962 ft 514 kts 203°
2026-04-25 15:25 32.69354 -78.05195 42963 ft 516 kts 199°
2026-04-25 15:26 32.62378 -78.07475 42968 ft 516 kts 197°
2026-04-25 15:26 32.55534 -78.09857 42958 ft 516 kts 198°
2026-04-25 15:27 32.48602 -78.12171 42960 ft 518 kts 198°
2026-04-25 15:28 32.38216 -78.15702 42965 ft 518 kts 198°
2026-04-25 15:28 32.31285 -78.18028 42956 ft 518 kts 198°
2026-04-25 15:29 32.24350 -78.20370 42959 ft 519 kts 198°
2026-04-25 15:29 32.17397 -78.22706 42966 ft 520 kts 198°
2026-04-25 15:30 32.10442 -78.25041 42962 ft 519 kts 198°
2026-04-25 15:30 32.03490 -78.27371 42961 ft 520 kts 198°
2026-04-25 15:31 31.96518 -78.29706 42964 ft 522 kts 198°
2026-04-25 15:31 31.89520 -78.32044 42968 ft 522 kts 198°
2026-04-25 15:32 31.82534 -78.34375 42967 ft 522 kts 198°
2026-04-25 15:32 31.76731 -78.36307 42958 ft 522 kts 198°
2026-04-25 15:33 31.66241 -78.39796 42963 ft 523 kts 198°
2026-04-25 15:33 31.59243 -78.42118 42966 ft 522 kts 198°
2026-04-25 15:34 31.52253 -78.44434 42978 ft 522 kts 198°
2026-04-25 15:34 31.46395 -78.46342 42976 ft 521 kts 197°
2026-04-25 15:35 31.34789 -78.50106 42974 ft 521 kts 198°
2026-04-25 15:36 31.24308 -78.53493 42975 ft 521 kts 198°
2026-04-25 15:36 31.17331 -78.55746 42973 ft 519 kts 198°
2026-04-25 15:37 31.10369 -78.57991 42975 ft 519 kts 198°
2026-04-25 15:37 31.03403 -78.60234 42977 ft 519 kts 198°
2026-04-25 15:38 30.96436 -78.62474 42981 ft 519 kts 198°
2026-04-25 15:38 30.89472 -78.64710 42985 ft 519 kts 198°
2026-04-25 15:39 30.82516 -78.66939 42985 ft 519 kts 198°
2026-04-25 15:39 30.75558 -78.69166 42978 ft 519 kts 198°
2026-04-25 15:40 30.69719 -78.71032 42982 ft 520 kts 198°
2026-04-25 15:40 30.61597 -78.73624 42986 ft 521 kts 198°
2026-04-25 15:41 30.54601 -78.75853 42994 ft 521 kts 198°
2026-04-25 15:41 30.47611 -78.78077 42992 ft 521 kts 198°
2026-04-25 15:42 30.40621 -78.80297 42990 ft 521 kts 199°
2026-04-25 15:42 30.33628 -78.82515 42991 ft 521 kts 199°
2026-04-25 15:43 30.26628 -78.84731 42994 ft 521 kts 199°
2026-04-25 15:43 30.19634 -78.86943 42994 ft 521 kts 198°
2026-04-25 15:44 30.12645 -78.89152 42993 ft 521 kts 198°
2026-04-25 15:44 30.05650 -78.91358 42993 ft 521 kts 198°
2026-04-25 15:45 29.98663 -78.93559 42997 ft 521 kts 198°
2026-04-25 15:45 29.92852 -78.95386 42981 ft 521 kts 199°
2026-04-25 15:46 29.84682 -78.97952 42992 ft 520 kts 199°
2026-04-25 15:46 29.77607 -78.99762 43005 ft 523 kts 192°
2026-04-25 15:47 29.70422 -79.01102 43011 ft 523 kts 193°
2026-04-25 15:47 29.63219 -79.02428 43000 ft 524 kts 192°
2026-04-25 15:48 29.56026 -79.03756 42997 ft 523 kts 193°
2026-04-25 15:48 29.48832 -79.05081 43001 ft 524 kts 193°
2026-04-25 15:49 29.41685 -79.06396 43000 ft 523 kts 193°
2026-04-25 15:49 29.34488 -79.07717 43001 ft 524 kts 193°
2026-04-25 15:50 29.27289 -79.09038 43003 ft 524 kts 193°
2026-04-25 15:50 29.20089 -79.10357 43004 ft 524 kts 193°
2026-04-25 15:51 29.14055 -79.11460 43001 ft 524 kts 193°
2026-04-25 15:51 29.05686 -79.12989 43008 ft 523 kts 193°
2026-04-25 15:52 28.98499 -79.14299 43006 ft 523 kts 193°
2026-04-25 15:52 28.91320 -79.15607 43005 ft 522 kts 193°
2026-04-25 15:53 28.84139 -79.16913 43008 ft 523 kts 193°
2026-04-25 15:53 28.76960 -79.18217 43002 ft 522 kts 193°
2026-04-25 15:54 28.69794 -79.19516 42999 ft 520 kts 193°
2026-04-25 15:54 28.62633 -79.20813 42998 ft 521 kts 193°
2026-04-25 15:55 28.55475 -79.22107 42999 ft 521 kts 193°
2026-04-25 15:55 28.48361 -79.23392 43002 ft 520 kts 193°
2026-04-25 15:56 28.41224 -79.24679 43000 ft 519 kts 193°
2026-04-25 15:56 28.34077 -79.25970 42505 ft 523 kts 193°
2026-04-25 15:57 28.30566 -79.26870 41833 ft 513 kts 200°
2026-04-25 15:57 28.27145 -79.28014 41167 ft 514 kts 199°
2026-04-25 15:57 28.23691 -79.29120 40480 ft 518 kts 198°
2026-04-25 15:57 28.20216 -79.30225 39811 ft 518 kts 198°
2026-04-25 15:58 28.16757 -79.31356 39129 ft 517 kts 198°
2026-04-25 15:58 28.13292 -79.32495 38403 ft 520 kts 197°
2026-04-25 15:58 28.09807 -79.33619 37709 ft 521 kts 197°
2026-04-25 15:58 28.06321 -79.34737 37023 ft 521 kts 197°
2026-04-25 15:59 28.02830 -79.35870 36334 ft 523 kts 198°
2026-04-25 15:59 27.99322 -79.37010 35639 ft 524 kts 198°
2026-04-25 15:59 27.95809 -79.38142 34948 ft 525 kts 198°
2026-04-25 15:59 27.92297 -79.39273 34255 ft 525 kts 198°
2026-04-25 16:00 27.88790 -79.40406 33521 ft 524 kts 198°
2026-04-25 16:00 27.87607 -79.40788 33291 ft 524 kts 198°
2026-04-25 16:00 27.81725 -79.42685 32122 ft 527 kts 198°
2026-04-25 16:00 27.78233 -79.43806 31435 ft 518 kts 197°
2026-04-25 16:01 27.74823 -79.44903 30761 ft 514 kts 197°
2026-04-25 16:01 27.71360 -79.46019 30075 ft 508 kts 197°
2026-04-25 16:01 27.68032 -79.47087 29377 ft 500 kts 197°
2026-04-25 16:01 27.64691 -79.48160 28720 ft 498 kts 197°
2026-04-25 16:02 27.61377 -79.49224 28068 ft 493 kts 197°
2026-04-25 16:02 27.58098 -79.50275 27423 ft 488 kts 198°
2026-04-25 16:02 27.54837 -79.51321 26779 ft 485 kts 198°
2026-04-25 16:02 27.51606 -79.52356 26141 ft 481 kts 198°
2026-04-25 16:03 27.48403 -79.53380 25510 ft 476 kts 198°
2026-04-25 16:03 27.45225 -79.54399 24885 ft 473 kts 198°
2026-04-25 16:03 27.42070 -79.55406 24262 ft 470 kts 198°
2026-04-25 16:03 27.38940 -79.56406 23753 ft 464 kts 198°
2026-04-25 16:04 27.35838 -79.57383 23301 ft 463 kts 198°
2026-04-25 16:04 27.32746 -79.58350 22865 ft 459 kts 198°
2026-04-25 16:04 27.29683 -79.59317 22446 ft 455 kts 198°
2026-04-25 16:04 27.26645 -79.60277 22029 ft 452 kts 198°
2026-04-25 16:05 27.23622 -79.61227 21615 ft 450 kts 198°
2026-04-25 16:05 27.20621 -79.62170 21201 ft 446 kts 198°
2026-04-25 16:05 27.14681 -79.64055 20725 ft 447 kts 199°
2026-04-25 16:06 27.11719 -79.65017 20220 ft 439 kts 199°
2026-04-25 16:06 27.08792 -79.65951 19700 ft 436 kts 199°
2026-04-25 16:06 27.05891 -79.66874 19215 ft 431 kts 199°
2026-04-25 16:06 27.03023 -79.67793 18719 ft 426 kts 199°
2026-04-25 16:07 27.00185 -79.68700 18231 ft 423 kts 199°
2026-04-25 16:07 26.99266 -79.68993 18066 ft 421 kts 199°
2026-04-25 16:07 26.94578 -79.70492 17258 ft 417 kts 199°
2026-04-25 16:07 26.91836 -79.71365 16785 ft 414 kts 199°
2026-04-25 16:08 26.89040 -79.72256 16293 ft 411 kts 199°
2026-04-25 16:08 26.86301 -79.73131 15828 ft 408 kts 198°
2026-04-25 16:08 26.83579 -79.73996 15356 ft 404 kts 198°
2026-04-25 16:08 26.80925 -79.74840 14895 ft 389 kts 198°
2026-04-25 16:09 26.78403 -79.75638 14453 ft 375 kts 198°
2026-04-25 16:09 26.75934 -79.76414 14029 ft 363 kts 198°
2026-04-25 16:09 26.73543 -79.77170 13594 ft 351 kts 198°
2026-04-25 16:09 26.71229 -79.77901 13184 ft 341 kts 198°
2026-04-25 16:10 26.68990 -79.78686 13009 ft 331 kts 202°
2026-04-25 16:10 26.66847 -79.79581 12898 ft 330 kts 203°
2026-04-25 16:10 26.64669 -79.80477 12571 ft 336 kts 202°
2026-04-25 16:10 26.62467 -79.81366 12205 ft 337 kts 202°
2026-04-25 16:11 26.60271 -79.82259 11831 ft 335 kts 202°
2026-04-25 16:11 26.58090 -79.83149 11457 ft 332 kts 202°
2026-04-25 16:11 26.55942 -79.84023 11088 ft 323 kts 202°
2026-04-25 16:11 26.53895 -79.84951 10728 ft 312 kts 205°
2026-04-25 16:12 26.51926 -79.85891 10385 ft 304 kts 205°
2026-04-25 16:12 26.49975 -79.86802 10044 ft 303 kts 205°
2026-04-25 16:12 26.48038 -79.87708 9697 ft 301 kts 205°
2026-04-25 16:12 26.47413 -79.88002 9582 ft 300 kts 205°
2026-04-25 16:13 26.44226 -79.89499 9023 ft 291 kts 205°
2026-04-25 16:13 26.42380 -79.90367 8695 ft 285 kts 204°
2026-04-25 16:13 26.40554 -79.91222 8379 ft 284 kts 204°
2026-04-25 16:13 26.38739 -79.92077 8067 ft 282 kts 204°
2026-04-25 16:14 26.37045 -79.93090 8014 ft 274 kts 212°
2026-04-25 16:14 26.35408 -79.94164 8013 ft 273 kts 211°
2026-04-25 16:14 26.33750 -79.95210 8013 ft 274 kts 211°
2026-04-25 16:14 26.32098 -79.96268 8014 ft 274 kts 211°
2026-04-25 16:15 26.30445 -79.97332 8007 ft 274 kts 211°
2026-04-25 16:15 26.28796 -79.98391 8007 ft 274 kts 211°
2026-04-25 16:15 26.27147 -79.99449 8006 ft 273 kts 211°
2026-04-25 16:15 26.25498 -80.00506 8008 ft 274 kts 211°
2026-04-25 16:16 26.23850 -80.01569 8007 ft 274 kts 211°
2026-04-25 16:16 26.22222 -80.02614 8008 ft 274 kts 211°
2026-04-25 16:16 26.20573 -80.03674 8004 ft 273 kts 211°
2026-04-25 16:16 26.19076 -80.04937 7984 ft 270 kts 230°
2026-04-25 16:17 26.18045 -80.06677 7856 ft 274 kts 241°
2026-04-25 16:17 26.17108 -80.08535 7529 ft 275 kts 242°
2026-04-25 16:17 26.16189 -80.10405 7190 ft 275 kts 242°
2026-04-25 16:17 26.15285 -80.12276 6854 ft 274 kts 242°
2026-04-25 16:18 26.14390 -80.14148 6527 ft 274 kts 242°
2026-04-25 16:18 26.14089 -80.14780 6415 ft 274 kts 242°
2026-04-25 16:18 26.12582 -80.17870 5805 ft 273 kts 234°
2026-04-25 16:18 26.11201 -80.19304 5429 ft 271 kts 215°
2026-04-25 16:19 26.09643 -80.20485 5104 ft 272 kts 213°
2026-04-25 16:19 26.08608 -80.21260 4886 ft 270 kts 213°
2026-04-25 16:19 26.07047 -80.22426 4533 ft 270 kts 213°
2026-04-25 16:20 26.03958 -80.24743 3843 ft 266 kts 213°
2026-04-25 16:20 26.02490 -80.25979 3468 ft 267 kts 224°
2026-04-25 16:20 26.01360 -80.29770 3013 ft 253 kts 266°
2026-04-25 16:21 26.01261 -80.31663 2993 ft 239 kts 266°
2026-04-25 16:21 26.01181 -80.33496 3016 ft 239 kts 266°
2026-04-25 16:21 26.01112 -80.35342 3014 ft 236 kts 267°
2026-04-25 16:21 26.01049 -80.37163 3009 ft 235 kts 267°
2026-04-25 16:22 26.00978 -80.38968 2986 ft 237 kts 266°
2026-04-25 16:22 26.00912 -80.40813 2789 ft 236 kts 266°
2026-04-25 16:22 26.00852 -80.42607 2595 ft 229 kts 266°
2026-04-25 16:22 26.00690 -80.44334 2340 ft 222 kts 251°
2026-04-25 16:23 25.99830 -80.45693 2015 ft 214 kts 214°
2026-04-25 16:23 25.98512 -80.46167 1988 ft 190 kts 180°
2026-04-25 16:23 25.97240 -80.46194 2000 ft 181 kts 178°
2026-04-25 16:23 25.95971 -80.46255 1998 ft 183 kts 179°
2026-04-25 16:24 25.94723 -80.46285 2003 ft 181 kts 178°
2026-04-25 16:24 25.93461 -80.46314 2012 ft 181 kts 179°
2026-04-25 16:24 25.92227 -80.46145 1966 ft 178 kts 154°
2026-04-25 16:24 25.91420 -80.45171 1992 ft 176 kts 115°
2026-04-25 16:25 25.90964 -80.43906 2033 ft 179 kts 111°
2026-04-25 16:25 25.90726 -80.43022 2023 ft 174 kts 102°
2026-04-25 16:25 25.90695 -80.41253 2020 ft 173 kts 90°
2026-04-25 16:25 25.90719 -80.39960 1939 ft 168 kts 89°
2026-04-25 16:26 25.90791 -80.38661 1718 ft 167 kts 87°
2026-04-25 16:26 25.90851 -80.37423 1524 ft 152 kts 89°
2026-04-25 16:26 25.90908 -80.36336 1316 ft 130 kts 88°
2026-04-25 16:26 25.90944 -80.35391 1138 ft 118 kts 88°
2026-04-25 16:27 25.90996 -80.34496 1005 ft 116 kts 89°
2026-04-25 16:27 25.91034 -80.33594 857 ft 115 kts 88°
2026-04-25 16:27 25.91077 -80.32691 714 ft 119 kts 89°
2026-04-25 16:27 25.91126 -80.31768 568 ft 120 kts 85°
2026-04-25 16:28 25.91175 -80.30833 386 ft 123 kts 88°
2026-04-25 16:28 25.91215 -80.29887 226 ft 122 kts 88°
2026-04-25 16:28 25.91261 -80.28962 70 ft 118 kts 89°
2026-04-25 16:28 25.91299 -80.28132 9 ft 86 kts 86°
2026-04-25 16:29 25.91320 -80.27726 10 ft 22 kts 87°
2026-04-25 16:29 25.91282 -80.27650 12 ft 10 kts 168°
2026-04-25 16:29 25.91211 -80.27644 14 ft 8 kts 163°
2026-04-25 16:29 25.91187 -80.27588 13 ft 11 kts 86°
2026-04-25 16:30 25.91195 -80.27502 15 ft 12 kts 85°
2026-04-25 16:30 25.91193 -80.27416 18 ft 11 kts 118°
2026-04-25 16:30 25.91145 -80.27342 17 ft 13 kts 89°
2026-04-25 16:30 25.91151 -80.27239 20 ft 14 kts 87°
2026-04-25 16:31 25.91156 -80.27129 17 ft 15 kts 88°
2026-04-25 16:31 25.91147 -80.27027 17 ft 10 kts 149°
2026-04-25 16:31 25.91071 -80.27021 16 ft 11 kts 181°
2026-04-25 16:31 25.91048 -80.27089 16 ft 11 kts 262°
2026-04-25 16:32 25.91057 -80.27136 17 ft 0 kts 302°
2026-04-25 16:32 25.91058 -80.27138 17 ft 0 kts 302°